GW3762 Weather Reports


Display with metric or nautical units.
time (UTC)temp
F
wind
direction
speed
MPH
gust
MPH
rain 1hr
in
rain 24hr
in
rain mn
in
humidity
%
barometer
mb
20260506002459 61 242 6.0 8.0 0.00 0.00 0.00 71 1010.2
20260506001959 61 242 9.0 9.0 0.00 0.00 0.00 71 1010.2
20260506001458 62 222 3.0 9.0 0.00 0.00 0.00 70 1010.2
20260506000959 62 236 7.0 9.0 0.00 0.00 0.00 70 1010.1
20260506000458 62 226 7.0 10.0 0.00 0.00 0.00 70 1010.1
20260505235458 62 229 6.0 11.0 0.00 0.00 0.00 69 1009.9
20260505235001 63 226 3.0 12.0 0.00 0.00 0.00 69 1009.8
20260505234457 63 250 10.0 12.0 0.00 0.00 0.00 68 1009.8
20260505233958 63 222 4.0 12.0 0.00 0.00 0.00 69 1009.8
20260505233458 63 231 5.0 11.0 0.00 0.00 0.00 69 1009.8
20260505232958 63 239 6.0 10.0 0.00 0.00 0.00 68 1009.7
20260505232459 64 229 3.0 8.0 0.00 0.00 0.00 68 1009.7
20260505231957 64 221 4.0 12.0 0.00 0.00 0.00 68 1009.5
20260505230957 64 235 3.0 12.0 0.00 0.00 0.00 68 1009.4
20260505230500 65 234 4.0 12.0 0.00 0.00 0.00 67 1009.4
20260505225957 65 226 2.0 13.0 0.00 0.00 0.00 67 1009.2
20260505224958 65 251 5.0 12.0 0.00 0.00 0.00 67 1009.3
20260505223957 66 242 6.0 14.0 0.00 0.00 0.00 67 1009.3
20260505222958 66 233 4.0 12.0 0.00 0.00 0.00 67 1009.3
20260505222457 66 242 2.0 12.0 0.00 0.00 0.00 67 1009.4
20260505221958 66 234 5.0 10.0 0.00 0.00 0.00 66 1009.4
20260505221457 66 238 4.0 12.0 0.00 0.00 0.00 66 1009.4
20260505221001 66 238 5.0 12.0 0.00 0.00 0.00 66 1009.4
20260505220458 66 233 2.0 12.0 0.00 0.00 0.00 66 1009.4
20260505215957 66 256 2.0 8.0 0.00 0.00 0.00 67 1009.4
20260505215457 67 245 3.0 11.0 0.00 0.00 0.00 67 1009.3
20260505214957 67 240 3.0 11.0 0.00 0.00 0.00 65 1009.2
20260505214458 67 224 3.0 8.0 0.00 0.00 0.00 66 1009.2
20260505213457 67 190 1.0 8.0 0.00 0.00 0.00 64 1009.2
20260505212958 68 259 4.0 8.0 0.00 0.00 0.00 64 1009.1
20260505212458 68 161 2.0 7.0 0.00 0.00 0.00 63 1009.1
20260505211957 68 234 3.0 7.0 0.00 0.00 0.00 65 1009.0
20260505211458 68 200 2.0 7.0 0.00 0.00 0.00 63 1008.9
20260505210957 69 192 2.0 7.0 0.00 0.00 0.00 62 1008.9
20260505210457 69 233 0.0 7.0 0.00 0.00 0.00 64 1009.0
20260505205457 69 196 2.0 5.0 0.00 0.00 0.00 63 1009.1
20260505204957 69 238 1.0 4.0 0.00 0.00 0.00 63 1009.1
20260505204458 70 216 2.0 7.0 0.00 0.00 0.00 62 1008.9
20260505203958 70 216 2.0 8.0 0.00 0.00 0.00 62 1008.9
20260505203457 70 228 2.0 8.0 0.00 0.00 0.00 62 1009.0
20260505202957 70 220 2.0 7.0 0.00 0.00 0.00 62 1009.0
20260505202457 71 157 3.0 7.0 0.00 0.00 0.00 59 1009.1
20260505201958 71 201 2.0 12.0 0.00 0.00 0.00 60 1009.2
20260505201457 71 254 7.0 12.0 0.00 0.00 0.00 61 1009.1
20260505200957 71 164 2.0 7.0 0.00 0.00 0.00 58 1009.2
20260505200458 72 217 2.0 7.0 0.00 0.00 0.00 60 1009.3
20260505195958 72 210 3.0 9.0 0.00 0.00 0.00 59 1009.3
20260505195457 72 208 3.0 10.0 0.00 0.00 0.00 58 1009.3
20260505194958 72 212 2.0 10.0 0.00 0.00 0.00 57 1009.4
20260505194458 72 222 6.0 9.0 0.00 0.00 0.00 57 1009.4
20260505193957 73 209 4.0 9.0 0.00 0.00 0.00 58 1009.4
20260505193457 73 236 5.0 9.0 0.00 0.00 0.00 58 1009.4
20260505192957 73 249 7.0 9.0 0.00 0.00 0.00 59 1009.5
20260505192458 73 219 3.0 8.0 0.00 0.00 0.00 57 1009.5
20260505191957 73 246 3.0 11.0 0.00 0.00 0.00 59 1009.5
20260505190957 73 101 3.0 9.0 0.00 0.00 0.00 59 1009.6
20260505190458 73 231 1.0 7.0 0.00 0.00 0.00 60 1009.8
20260505185959 73 194 1.0 6.0 0.00 0.00 0.00 58 1009.9
20260505185457 74 197 1.0 11.0 0.00 0.00 0.00 59 1009.9
20260505184957 74 244 0.0 11.0 0.00 0.00 0.00 58 1010.0
20260505184457 74 250 8.0 9.0 0.00 0.00 0.00 57 1010.0
20260505183957 74 227 2.0 9.0 0.00 0.00 0.00 58 1010.0
20260505183458 74 232 4.0 9.0 0.00 0.00 0.00 61 1010.0
20260505182957 74 212 3.0 10.0 0.00 0.00 0.00 59 1009.9
20260505182457 74 241 4.0 10.0 0.00 0.00 0.00 58 1010.0
20260505181958 74 238 4.0 13.0 0.00 0.00 0.00 58 1010.0
20260505181457 75 259 7.0 13.0 0.00 0.00 0.00 60 1010.0
20260505180957 74 259 6.0 9.0 0.00 0.00 0.00 58 1010.0
20260505175957 74 238 2.0 5.0 0.00 0.00 0.00 57 1010.0
20260505175457 74 275 3.0 11.0 0.00 0.00 0.00 57 1010.0
20260505174957 74 225 1.0 11.0 0.00 0.00 0.00 56 1010.0
20260505174457 74 223 3.0 8.0 0.00 0.00 0.00 56 1010.1
20260505173958 73 214 2.0 8.0 0.00 0.00 0.00 59 1010.2
20260505173458 74 192 3.0 8.0 0.00 0.00 0.00 57 1010.2
20260505172457 74 244 4.0 11.0 0.00 0.00 0.00 59 1010.4
20260505171458 73 175 1.0 5.0 0.00 0.00 0.00 57 1010.3
20260505170958 74 219 2.0 9.0 0.00 0.00 0.00 58 1010.3
20260505170457 74 298 1.0 10.0 0.00 0.00 0.00 58 1010.3
20260505165457 73 218 4.0 5.0 0.00 0.00 0.00 59 1010.4
20260505164958 72 240 2.0 4.0 0.00 0.00 0.00 61 1010.3
20260505164501 72 202 1.0 7.0 0.00 0.00 0.00 60 1010.6
20260505163957 72 170 0.0 7.0 0.00 0.00 0.00 59 1010.6
20260505162957 73 221 1.0 5.0 0.00 0.00 0.00 62 1010.9
20260505162458 72 240 2.0 4.0 0.00 0.00 0.00 62 1011.0
20260505161957 72 189 2.0 5.0 0.00 0.00 0.00 61 1011.0
20260505161457 72 232 3.0 9.0 0.00 0.00 0.00 65 1011.1
20260505160957 72 225 2.0 9.0 0.00 0.00 0.00 60 1011.1
20260505160458 72 232 3.0 7.0 0.00 0.00 0.00 62 1011.1
20260505152956 71 256 8.0 9.0 0.00 0.00 0.00 62 1011.5
20260505151957 70 227 5.0 7.0 0.00 0.00 0.00 64 1011.7
20260505151456 70 223 3.0 7.0 0.00 0.00 0.00 67 1011.7
20260505150457 69 229 5.0 9.0 0.00 0.00 0.00 67 1011.7
20260505124957 57 240 1.0 2.0 0.00 0.00 0.00 86 1011.4
20260505123957 56 240 0.0 4.0 0.00 0.00 0.00 86 1011.6
20260505123456 56 247 3.0 4.0 0.00 0.00 0.00 87 1011.5
20260505121956 55 257 0.0 3.0 0.00 0.00 0.00 89 1011.7
20260505121456 55 257 2.0 3.0 0.00 0.00 0.00 90 1011.8
20260505120456 54 256 0.0 4.0 0.00 0.00 0.00 91 1011.8
20260505115458 53 232 3.0 5.0 0.00 0.00 0.00 92 1011.8
20260505114957 53 256 2.0 5.0 0.00 0.00 0.00 92 1011.8
20260505114457 52 250 3.0 5.0 0.00 0.00 0.00 92 1011.9
20260505113457 52 263 0.0 4.0 0.00 0.00 0.00 93 1011.9
20260505112957 52 240 0.0 4.0 0.00 0.00 0.00 93 1011.9
20260505111957 51 248 4.0 4.0 0.00 0.00 0.00 93 1012.0
20260505111457 51 257 1.0 3.0 0.00 0.00 0.00 93 1011.9
20260505110957 51 257 2.0 4.0 0.00 0.00 0.00 93 1011.6
20260505101957 50 246 2.0 4.0 0.00 0.00 0.00 93 1010.9
20260505100957 49 250 0.0 3.0 0.00 0.00 0.00 93 1010.6
20260505100457 49 250 1.0 3.0 0.00 0.00 0.00 93 1010.7
20260505095956 49 250 1.0 2.0 0.00 0.00 0.00 93 1010.6
20260505094956 49 250 0.0 2.0 0.00 0.00 0.00 93 1010.7
20260505094456 49 250 1.0 2.0 0.00 0.00 0.00 93 1010.8
20260505093457 49 250 0.0 0.0 0.00 0.00 0.00 93 1010.6
20260505092956 49 250 0.0 0.0 0.00 0.00 0.00 92 1010.6
20260505092456 49 250 0.0 0.0 0.00 0.00 0.00 92 1010.6
20260505091456 49 250 0.0 0.0 0.00 0.00 0.00 92 1010.6
20260505090956 50 250 0.0 1.0 0.00 0.00 0.00 92 1010.6
20260505090456 50 250 0.0 3.0 0.00 0.00 0.00 92 1010.5
20260505085959 50 250 2.0 3.0 0.00 0.00 0.00 92 1010.5
20260505085457 50 250 2.0 4.0 0.00 0.00 0.00 92 1010.5
20260505084957 50 250 1.0 4.0 0.00 0.00 0.00 92 1010.6
20260505084458 50 238 3.0 4.0 0.00 0.00 0.00 92 1010.6
20260505083957 50 234 2.0 5.0 0.00 0.00 0.00 92 1010.6
20260505083457 50 248 4.0 5.0 0.00 0.00 0.00 92 1010.7
20260505082957 50 237 2.0 4.0 0.00 0.00 0.00 92 1010.8
20260505082457 50 245 3.0 4.0 0.00 0.00 0.00 92 1010.9
20260505081457 50 232 2.0 4.0 0.00 0.00 0.00 91 1010.9
20260505080456 50 220 2.0 3.0 0.00 0.00 0.00 91 1010.7
20260505075955 50 220 3.0 3.0 0.00 0.00 0.00 91 1010.7
20260505075457 50 219 1.0 3.0 0.00 0.00 0.00 91 1010.6
20260505074956 50 198 2.0 3.0 0.00 0.00 0.00 91 1010.6
20260505074456 50 198 3.0 3.0 0.00 0.00 0.00 90 1010.6
20260505073956 50 198 3.0 3.0 0.00 0.00 0.00 90 1010.6
20260505073455 50 198 2.0 3.0 0.00 0.00 0.00 90 1010.7
20260505072956 50 197 2.0 3.0 0.00 0.00 0.00 90 1010.7
20260505072456 50 181 0.0 2.0 0.00 0.00 0.00 90 1010.6
20260505071955 50 180 0.0 0.0 0.00 0.00 0.00 89 1010.7
20260505071455 50 168 0.0 0.0 0.00 0.00 0.00 89 1010.7
20260505070956 51 168 0.0 1.0 0.00 0.00 0.00 89 1010.8
20260505070456 51 168 0.0 2.0 0.00 0.00 0.00 88 1010.7
20260505065959 51 168 0.0 2.0 0.00 0.00 0.00 88 1010.9
20260505065457 51 168 0.0 2.0 0.00 0.00 0.00 88 1010.8
20260505064957 51 163 0.0 2.0 0.00 0.00 0.00 88 1010.9
20260505064458 51 205 0.0 3.0 0.00 0.00 0.00 87 1010.9
20260505063957 51 205 1.0 3.0 0.00 0.00 0.00 87 1011.0
20260505063457 51 205 0.0 3.0 0.00 0.00 0.00 87 1011.0
20260505062956 51 205 0.0 3.0 0.00 0.00 0.00 87 1011.0
20260505062457 51 205 1.0 3.0 0.00 0.00 0.00 86 1011.0
20260505061956 51 205 2.0 3.0 0.00 0.00 0.00 86 1011.0
20260505061500 51 204 2.0 2.0 0.00 0.00 0.00 86 1010.9
20260505060957 51 204 0.0 2.0 0.00 0.00 0.00 85 1011.0
20260505060457 51 240 1.0 2.0 0.00 0.00 0.00 85 1011.1
20260505055958 51 240 1.0 2.0 0.00 0.00 0.00 85 1011.1
20260505054956 51 241 0.0 1.0 0.00 0.00 0.00 84 1011.1
20260505054455 51 241 0.0 1.0 0.00 0.00 0.00 84 1011.2
20260505053956 51 241 1.0 2.0 0.00 0.00 0.00 84 1011.3
20260505053455 51 241 0.0 2.0 0.00 0.00 0.00 83 1011.2
20260505051456 52 243 0.0 0.0 0.00 0.00 0.00 82 1011.3
20260505041458 51 243 0.0 1.0 0.00 0.00 0.00 80 1011.7
20260505040959 51 243 0.0 2.0 0.00 0.00 0.00 79 1011.7
20260505040458 52 244 0.0 2.0 0.00 0.00 0.00 78 1011.7
20260505035457 52 243 0.0 2.0 0.00 0.00 0.00 78 1011.7
20260505034457 52 243 1.0 3.0 0.00 0.00 0.00 78 1011.6
20260505033958 52 243 3.0 3.0 0.00 0.00 0.00 78 1011.6
20260505033458 52 243 2.0 3.0 0.00 0.00 0.00 78 1011.6
20260505032958 52 244 1.0 3.0 0.00 0.00 0.00 78 1011.6
20260505032458 53 244 3.0 3.0 0.00 0.00 0.00 78 1011.6
20260505031958 52 244 2.0 3.0 0.00 0.00 0.00 78 1011.6
20260505031458 53 244 2.0 3.0 0.00 0.00 0.00 78 1011.6
20260505030957 53 244 2.0 4.0 0.00 0.00 0.00 78 1011.6
20260505030458 52 244 2.0 4.0 0.00 0.00 0.00 78 1011.7
20260505024958 53 236 2.0 4.0 0.00 0.00 0.00 77 1011.6
20260505023958 53 230 2.0 4.0 0.00 0.00 0.00 77 1011.6
20260505023457 53 230 2.0 4.0 0.00 0.00 0.00 77 1011.6
20260505022958 53 252 2.0 5.0 0.00 0.00 0.00 77 1011.7
20260505022458 53 242 3.0 5.0 0.00 0.00 0.00 77 1011.7
20260505021958 53 231 2.0 5.0 0.00 0.00 0.00 77 1011.7
20260505021457 53 236 3.0 5.0 0.00 0.00 0.00 78 1011.8
20260505020958 53 241 4.0 5.0 0.00 0.00 0.00 77 1011.7
20260505020457 53 247 3.0 5.0 0.00 0.00 0.00 77 1011.7
20260505020000 53 240 3.0 5.0 0.00 0.00 0.00 78 1011.6
20260505015000 53 232 3.0 5.0 0.00 0.00 0.00 78 1011.6
20260505014458 53 234 3.0 5.0 0.00 0.00 0.00 78 1011.6
20260505014003 53 234 3.0 5.0 0.00 0.00 0.00 78 1011.6
20260505013459 53 228 2.0 4.0 0.00 0.00 0.00 78 1011.6
20260505012959 53 232 1.0 5.0 0.00 0.00 0.00 78 1011.5
20260505012459 53 240 3.0 5.0 0.00 0.00 0.00 78 1011.5
20260505012002 53 236 3.0 5.0 0.00 0.00 0.00 77 1011.5
20260505010959 53 248 1.0 6.0 0.00 0.00 0.00 77 1011.4
20260505010458 53 238 1.0 4.0 0.00 0.00 0.00 76 1011.3
20260505005959 54 259 2.0 5.0 0.00 0.00 0.00 75 1011.2
20260505005458 54 238 2.0 5.0 0.00 0.00 0.00 75 1011.1
20260505003958 54 233 2.0 8.0 0.00 0.00 0.00 73 1011.1
20260505003457 54 229 3.0 9.0 0.00 0.00 0.00 72 1011.0
20260505002958 55 231 5.0 9.0 0.00 0.00 0.00 72 1010.9